TITAN 3C TRANSTAGE DEB, 1668

Orbit data source: Space-Track

TITAN 3C TRANSTAGE DEB, 1668 is space debris in LEO originally from a launch on Fri, 15 Oct 1965 UTC launched from the Air Force Eastern Test Range (AFETR). Debris objects in space refer to the collection of defunct objects orbiting the Earth. Examples of debris include non-operational satellites, rocket bodies, and fragments generated from explosions, collisions, or faulty payload assembly.

Loading next visibility...
Identifier
1668, 1965-082AF
Orbit
LEO
Country
Flag of USUS
Related business
Manufacturer
Unknown
Mission
Spacecraft
Bus & Motor
Unknown
Mass
370 kg wet, 370 kg dry
Launch date (UTC)
1965-10-15 (61 years ago)
Launch vehicle
Unknown
Launch site
Air Force Eastern Test Range (AFETR)
Object type
Payload
Rocket body
Debris
Shape & HBR
Unknown shape, 1.2 m
Radar Cross Section
Large (>1 m²)

Expand to show TLE details & history
Last TLE update: 8 hours ago

TLE from 8 hours ago
0 TITAN 3C TRANSTAGE DEB
1 01668U 65082AF  26175.18693733  .00001267  00000-0  14858-3 0  9998
2 01668  32.0663 132.8096 0014110  57.3667 302.8343 14.82592906219385
Epoch: 2026-06-24T04:29Z
TLE epoch observation values (Epoch: 2026-06-24T04:29:11.385Z)
Latitude
0.00001°
Longitude
153.16442°
Altitude
614.439 km
Speed
7.557 km/s
True Right ascension
08h 51m 14s
True Declination
0° 00' 00"
Sunlit
Object was in daylight at epoch
Visualization orbit readout
Latitude
Unknown
Longitude
Unknown
Altitude
Unknown
Speed
Unknown
Apparent Right ascension
Unknown
Apparent Declination
Unknown
Sunlit
N/A
Visualization observer readout
Local Sidereal Time
23:54:32
Azimuth
Unknown
Elevation
Unknown
Doppler factor
Unknown
Orbital elements
Apogee altitude
634.67 km
Perigee altitude
614.908 km
Semi-major axis
7,002.926 km
Eccentricity
0.00141
Inclination
32.0663°
RAAN
132.8096°
Arg. of periapsis
57.3667°
True anomaly
302.69831°
Mean anomaly
302.8343°
Eccentric anomaly
302.76632°
Mean motion
3.7036 °/min
Orbital period
97.2 mins
BSTAR
0.00014858

Documentation

Showing up to 5 results
|